OOV-CUBE (TUBSAT-30)

Last updated on Sun Dec 14 2025 00:03:11 GMT+0000 (Coordinated Universal Time)

1 60240U 24128F 25346.81342213 .00005090 00000+0 39224-3 0 9999 2 60240 61.9941 154.9269 0058467 94.2646 266.5129 15.01608814 78113
UTC large
Height (km)
Speed (km/s)
/
Latitude / Longitude
Inclination (degrees)
Orbital Period (minutes)
Azimuth
Elevation
Range (km)
Doppler Factor

Next 0 passes for location: London (51.5072 / 0.1276)

Sorry there are no passes over London.